Location: Hopewell Observatory
(38.8698°N, 77.6988°W)
Time: 02:04:14
(UTC-04:00)

Amateur Radio Satellites - All Passes

Search period start: 24 May 2016 01:34
Search period end: 25 May 2016 01:34
Location: Hopewell Observatory, 38.8698°N, 77.6988°W

Satellite Date Start Highest point End Downlink Frequencies (MHz)
Time Altitude Azimuth
DANDE 24 May 01:35:15 01:42:44 37° 273° (W) 01:49:48 436.750
JAS-2 24 May 01:41:30 01:48:53 52° 98° (E) 01:55:30 435.910
SO-50 24 May 01:44:07 01:48:56 61° 118° (ESE) 01:53:47 436.795
ISS 24 May 01:46:48 01:47:53 11° 347° (NNW) 01:49:01 145.825
BEESAT 24 May 01:52:31 01:56:31 28° 68° (ENE) 02:00:31 436.000
PHONESAT 2.4 24 May 02:05:33 02:08:40 68° 352° (N) 02:11:48 2401.200-2431.200
DUCHIFAT 1 24 May 02:06:01 02:08:02 13° 295° (WNW) 02:10:04 145.980
SPROUT 24 May 02:06:47 02:07:53 11° 269° (W) 02:09:00 437.525
Gurwin Techsat 1B 24 May 02:27:02 02:31:18 24° 95° (E) 02:35:33 435.225
Oscar 19 24 May 02:38:00 02:43:11 76° 103° (ESE) 02:48:19 437.125/150
BUGSAT 1 24 May 02:43:17 02:44:05 10° 297° (WNW) 02:44:53 437.445
TISAT 1 24 May 02:45:38 02:47:46 14° 268° (W) 02:49:56 437.305
RS-15 24 May 02:56:28 03:08:35 58° 51° (NE) 03:20:38 29.354- 29.394
SWISSCUBE 24 May 02:59:11 03:03:49 54° 260° (W) 03:08:29 437.505
ITUPSAT 1 24 May 03:02:58 03:07:37 56° 259° (W) 03:12:19 437.325
STARS 24 May 03:10:50 03:11:46 11° 62° (ENE) 03:12:43 437.465
ITAMSAT 1 24 May 03:10:52 03:15:02 24° 95° (E) 03:19:11 435.822/435.867
SO-50 24 May 03:26:17 03:29:49 19° 316° (NW) 03:33:22 436.795
JAS-2 24 May 03:27:01 03:33:26 31° 297° (WNW) 03:39:23 435.910
BEESAT 24 May 03:30:06 03:34:12 29° 264° (W) 03:38:20 436.000
MOZHAYETS 4 24 May 03:41:12 03:45:12 31° 70° (ENE) 03:49:14
Cosmos 2504 24 May 03:41:26 03:43:21 11° 60° (ENE) 03:45:17 435.465 / 435.565
PHONESAT 2.4 24 May 03:42:27 03:45:34 75° 8° (N) 03:48:41 2401.200-2431.200
YUBILEINY 24 May 03:47:09 03:55:34 49° 76° (ENE) 04:03:58 435.215
KKS-1 24 May 03:55:55 04:00:21 66° 75° (ENE) 04:04:48 437.445
Gurwin Techsat 1B 24 May 04:06:25 04:11:21 40° 290° (WNW) 04:16:15 435.225
Oscar 19 24 May 04:19:27 04:21:50 13° 299° (WNW) 04:24:12 437.125/150
Cosmos 2491 24 May 04:38:20 04:46:51 55° 90° (E) 04:55:22 435.465 / 435.565
STARS 24 May 04:43:06 04:47:31 73° 258° (WSW) 04:51:56 437.465
ITAMSAT 1 24 May 04:49:46 04:54:35 39° 291° (WNW) 04:59:24 435.822/435.867
AO-7 24 May 04:51:11 04:59:31 64° 105° (ESE) 05:07:47 29.400- 29.500
CUBESAT XI-V 24 May 04:55:35 04:59:10 22° 67° (ENE) 05:02:47 437.345
ISS 24 May 05:00:15 05:02:58 23° 27° (NNE) 05:05:40 145.825
RS-15 24 May 05:09:29 05:20:47 45° 252° (WSW) 05:31:59 29.354- 29.394
HORYU 2 24 May 05:15:28 05:19:07 25° 96° (E) 05:22:46 437.375
MOZHAYETS 4 24 May 05:18:47 05:22:23 23° 266° (W) 05:26:00
PHONESAT 2.4 24 May 05:19:21 05:22:12 33° 206° (SSW) 05:25:03 2401.200-2431.200
Cosmos 2504 24 May 05:30:07 05:38:23 63° 80° (E) 05:47:04 435.465 / 435.565
KKS-1 24 May 05:36:33 05:37:20 10° 270° (W) 05:38:06 437.445
YUBILEINY 24 May 05:44:27 05:52:02 35° 275° (W) 05:59:40 435.215
NOAA 18 24 May 06:13:02 06:16:25 16° 92° (E) 06:19:47 137.9125
STRAND 1 24 May 06:13:29 06:15:55 14° 61° (ENE) 06:18:22 437.568
CUBESAT XI-V 24 May 06:32:05 06:36:19 35° 263° (W) 06:40:36 437.345
ISS 24 May 06:36:25 06:39:31 41° 224° (SW) 06:42:36 145.825
Cosmos 2491 24 May 06:36:26 06:44:02 32° 289° (WNW) 06:51:41 435.465 / 435.565
AO-7 24 May 06:44:51 06:51:41 29° 302° (WNW) 06:58:31 29.400- 29.500
Cubesat XI-IV 24 May 06:47:01 06:51:37 28° 96° (E) 06:56:11 437.490
HORYU 2 24 May 06:51:52 06:55:37 28° 291° (WNW) 06:59:22 437.375
LilacSat-2 24 May 06:56:11 06:59:30 28° 97° (E) 07:02:48 437.200
NOAA 15 24 May 06:56:39 07:01:50 52° 100° (E) 07:06:57 137.62
BRITE-PL 24 May 07:06:54 07:12:01 52° 98° (E) 07:16:42 437.365/2234.400
AO-85 24 May 07:09:03 07:14:21 55° 116° (ESE) 07:19:36 145.980
Cosmos 2504 24 May 07:24:33 07:31:10 27° 277° (W) 07:38:03 435.465 / 435.565
DOVE 4 24 May 07:25:31 07:27:57 15° 90° (E) 07:30:21 437.250
CUTE-I 24 May 07:34:05 07:39:28 80° 105° (ESE) 07:44:49 437.470
STRAND 1 24 May 07:49:22 07:54:27 73° 258° (WSW) 07:59:34 437.568
NOAA 18 24 May 07:52:03 07:57:27 61° 288° (WNW) 08:02:50 137.9125
GOMX 1 24 May 07:52:26 07:57:14 70° 101° (E) 08:01:40 467.674
PRISM 24 May 08:21:12 08:25:06 42° 72° (ENE) 08:29:03 437.425
CUTE 1.7 + AOD 2 24 May 08:23:03 08:25:56 18° 93° (E) 08:28:49 437.475
CINEMA 3 24 May 08:24:56 08:27:52 18° 93° (E) 08:30:45 145.822/145.860
Cubesat XI-IV 24 May 08:26:52 08:31:40 34° 292° (WNW) 08:36:27 437.490
Cosmos 2499 24 May 08:27:57 08:29:59 11° 59° (ENE) 08:32:01 435.465 / 435.565
LilacSat-2 24 May 08:31:03 08:33:36 17° 292° (WNW) 08:36:08 437.200
HO-68 24 May 08:32:21 08:38:38 32° 96° (E) 08:44:54 435.675
NOAA 15 24 May 08:37:27 08:41:11 20° 296° (WNW) 08:44:53 137.62
BRITE-PL 24 May 08:46:29 08:49:57 18° 297° (WNW) 08:53:16 437.365/2234.400
AIST 1 24 May 08:47:41 08:51:35 31° 77° (ENE) 08:55:28
AO-85 24 May 08:50:45 08:55:10 25° 313° (NW) 08:59:30 145.980
COMPASS 1 24 May 08:59:02 09:02:24 23° 95° (E) 09:05:44 437.405
DOVE 4 24 May 09:01:43 09:05:58 43° 288° (WNW) 09:10:00 437.250
AAUSAT CUBESAT 2 24 May 09:05:38 09:08:53 21° 94° (E) 09:12:06 437.432
AUBIESAT-1 24 May 09:08:20 09:11:37 58° 106° (ESE) 09:14:52 437.475
M-CUBED/EXP-1 PRIME 24 May 09:11:28 09:14:46 86° 98° (E) 09:18:02 437.505
CUTE-I 24 May 09:16:20 09:18:47 13° 300° (WNW) 09:21:15 437.470
JUGNU 24 May 09:18:25 09:19:59 11° 176° (S) 09:21:32 437.505
CANX-2 24 May 09:29:39 09:33:54 67° 284° (WNW) 09:38:09 2200.000
GOMX 1 24 May 09:32:50 09:34:34 12° 299° (WNW) 09:36:16 467.674
GONETS M04 24 May 09:36:32 09:45:05 56° 78° (ENE) 09:53:32
CUBEBUG 2 24 May 09:40:19 09:44:14 40° 98° (E) 09:48:11 437.445
SEEDS 24 May 09:40:20 09:44:36 81° 284° (WNW) 09:48:51 437.485
PCSat 24 May 09:40:37 09:43:18 14° 103° (ESE) 09:46:00 145.827
Oscar 11 24 May 09:46:10 09:49:46 25° 95° (E) 09:53:20 145.826/435.025
UNISAT 6 24 May 09:46:18 09:49:21 19° 67° (ENE) 09:52:21 437.425
ZACube-1 24 May 09:52:34 09:56:02 25° 96° (E) 09:59:31 437.345
TIGRISAT 24 May 09:54:53 09:58:13 22° 68° (ENE) 10:01:31 435.000
CUTE 1.7 + AOD 2 24 May 09:57:57 10:01:53 36° 288° (WNW) 10:05:48 437.475
PRISM 24 May 09:58:23 10:00:37 14° 267° (W) 10:02:52 437.425
CINEMA 3 24 May 10:01:22 10:05:06 31° 289° (WNW) 10:08:45 145.822/145.860
DELFI C3 24 May 10:08:26 10:11:24 20° 94° (E) 10:14:22 145.870
Cosmos 2499 24 May 10:16:24 10:24:51 61° 79° (E) 10:33:35 435.465 / 435.565
UWE-3 24 May 10:17:05 10:21:15 77° 102° (ESE) 10:25:28 435.000/436.395/437.385
SO-50 24 May 10:17:06 10:21:30 38° 52° (NE) 10:25:46 436.795
HO-68 24 May 10:19:42 10:26:28 46° 293° (WNW) 10:33:13 435.675
AIST 1 24 May 10:25:51 10:28:56 19° 273° (W) 10:31:59
ANTELSAT 24 May 10:26:15 10:30:31 50° 74° (ENE) 10:34:43 437.575/2403.000
FUNcube-1 24 May 10:32:18 10:36:28 71° 101° (ESE) 10:40:41 145.935
COMPASS 1 24 May 10:34:20 10:37:55 27° 290° (WNW) 10:41:29 437.405
HUMSAT D 24 May 10:35:21 10:38:12 18° 94° (E) 10:41:04 437.325/437.525
AAUSAT CUBESAT 2 24 May 10:40:44 10:44:20 29° 290° (WNW) 10:47:57 437.432
NANOSAT C BR1 24 May 10:41:12 10:42:57 12° 64° (ENE) 10:44:44 145.865
O/OREOS (USA 219) 24 May 10:43:16 10:47:50 78° 111° (ESE) 10:52:24 437.305
SRMSAT 24 May 11:05:30 11:05:58 10° 173° (S) 11:06:27 437.500
JUGNU 24 May 11:06:54 11:08:03 11° 186° (S) 11:09:13 437.505
CUBEBUG 2 24 May 11:18:06 11:20:33 15° 294° (WNW) 11:22:59 437.445
DUCHIFAT 1 24 May 11:19:26 11:23:09 31° 71° (ENE) 11:26:53 145.980
PCSat 24 May 11:20:37 11:26:01 73° 299° (WNW) 11:31:28 145.827
UNISAT 6 24 May 11:21:41 11:25:48 37° 262° (W) 11:29:51 437.425
Oscar 11 24 May 11:22:11 11:25:49 27° 290° (WNW) 11:29:27 145.826/435.025
ZACube-1 24 May 11:28:51 11:32:14 24° 290° (WNW) 11:35:38 437.345
TIGRISAT 24 May 11:30:48 11:34:44 31° 263° (W) 11:38:37 435.000
GONETS M04 24 May 11:34:13 11:41:20 30° 277° (W) 11:48:27
DELFI C3 24 May 11:42:47 11:46:17 29° 289° (WNW) 11:49:46 145.870
50 SAT 24 May 11:45:57 11:47:46 13° 93° (E) 11:49:35 437.505
JAS-2 24 May 11:52:17 11:57:44 23° 59° (ENE) 12:03:29 435.910
POPSAT HIP 1 24 May 11:52:29 11:56:44 84° 77° (ENE) 12:01:00 437.405
QB50P1 24 May 11:53:16 11:57:31 87° 72° (ENE) 12:01:46 145.935-145.965
BUGSAT 1 24 May 11:53:33 11:57:24 35° 72° (ENE) 12:01:14 437.445
QB50P2 24 May 11:54:11 11:58:26 87° 254° (WSW) 12:02:42 145.880/145.840
POLYITAN 1 24 May 11:56:36 12:00:52 85° 255° (WSW) 12:05:08 437.675
CUSAT 1 24 May 11:57:47 12:02:54 32° 86° (E) 12:09:06 437.405
SO-50 24 May 11:58:06 12:01:44 23° 249° (WSW) 12:05:16 436.795
AISAT 24 May 12:02:53 12:06:21 22° 95° (E) 12:09:46 437.250
ANTELSAT 24 May 12:05:21 12:07:28 13° 268° (W) 12:09:34 437.575/2403.000
BEESAT 2 24 May 12:09:13 12:11:04 13° 109° (ESE) 12:12:57 435.950
HUMSAT D 24 May 12:10:10 12:13:54 33° 288° (WNW) 12:17:39 437.325/437.525
Cosmos 2499 24 May 12:10:29 12:17:23 28° 276° (W) 12:24:29 435.465 / 435.565
NANOSAT C BR1 24 May 12:14:03 12:18:12 55° 259° (W) 12:22:22 145.865
SPROUT 24 May 12:17:12 12:18:16 11° 90° (E) 12:19:19 437.525
Oscar 19 24 May 12:18:12 12:20:04 12° 60° (ENE) 12:21:54 437.125/150
ESTCUBE 1 24 May 12:24:41 12:29:11 57° 100° (E) 12:33:38 437.505/2401.250
O/OREOS (USA 219) 24 May 12:26:19 12:27:48 11° 307° (NW) 12:29:18 437.305
UKube-1 24 May 12:31:27 12:35:14 29° 97° (E) 12:38:58 .
BEESAT 3 24 May 12:49:07 12:53:01 71° 119° (ESE) 12:56:58 437.485
SRMSAT 24 May 12:52:37 12:54:12 11° 183° (S) 12:55:46 437.500
DUCHIFAT 1 24 May 12:55:43 12:58:52 20° 265° (W) 13:02:02 145.980
DANDE 24 May 12:59:21 13:04:00 45° 90° (E) 13:10:08 436.750
VELOX 1 24 May 13:02:54 13:07:21 81° 282° (WNW) 13:11:45 145.980
CUBEBUG 1 24 May 13:06:05 13:10:28 71° 285° (WNW) 13:14:47 437.445
PCSat 24 May 13:08:10 13:10:23 12° 319° (NW) 13:12:38 145.827
DX 1 24 May 13:10:38 13:15:01 79° 284° (WNW) 13:19:20 434.975-435.025
50 SAT 24 May 13:18:12 13:21:37 36° 288° (WNW) 13:25:03 437.505
BUGSAT 1 24 May 13:29:59 13:32:51 18° 266° (W) 13:35:44 437.445
JAS-2 24 May 13:34:47 13:41:51 74° 258° (WSW) 13:49:40 435.910
AISAT 24 May 13:38:56 13:42:50 31° 290° (WNW) 13:46:41 437.250
CUSAT 1 24 May 13:39:14 13:44:45 40° 289° (WNW) 13:51:35 437.405
BEESAT 2 24 May 13:44:38 13:48:29 48° 304° (NW) 13:52:22 435.950
Gurwin Techsat 1B 24 May 13:46:45 13:51:30 34° 69° (ENE) 13:56:15 435.225
SPROUT 24 May 13:50:23 13:54:34 58° 286° (WNW) 13:58:44 437.525
Oscar 19 24 May 13:53:25 13:58:37 86° 256° (WSW) 14:03:51 437.125/150
AO-7 24 May 14:00:33 14:05:20 17° 50° (NE) 14:10:07 29.400- 29.500
ESTCUBE 1 24 May 14:03:10 14:05:29 14° 296° (WNW) 14:07:48 437.505/2401.250
UKube-1 24 May 14:07:42 14:11:07 23° 292° (WNW) 14:14:30 .
ITAMSAT 1 24 May 14:27:33 14:32:06 32° 68° (ENE) 14:36:41 435.822/435.867
TISAT 1 24 May 14:28:19 14:32:30 81° 283° (WNW) 14:36:39 437.305
BEESAT 3 24 May 14:29:31 14:31:11 12° 317° (NW) 14:32:50 437.485
DANDE 24 May 14:43:10 14:47:19 23° 296° (WNW) 14:52:24 436.750
Cosmos 2491 24 May 14:50:59 14:57:54 25° 68° (ENE) 15:04:43 435.465 / 435.565
SWISSCUBE 24 May 15:00:31 15:05:04 41° 99° (E) 15:09:35 437.505
ITUPSAT 1 24 May 15:04:39 15:09:11 40° 99° (E) 15:13:42 437.325
AIST 2 24 May 15:23:22 15:27:29 72° 302° (WNW) 15:31:38 435.215
JAS-2 24 May 15:25:46 15:28:10 12° 277° (W) 15:30:38 435.910
Gurwin Techsat 1B 24 May 15:26:56 15:31:26 28° 264° (W) 15:35:58 435.225
BEESAT 24 May 15:30:31 15:35:19 78° 103° (ESE) 15:40:06 436.000
AO-85 24 May 15:43:00 15:47:12 31° 49° (NE) 15:51:02 145.980
AO-7 24 May 15:48:30 15:56:45 77° 70° (ENE) 16:05:04 29.400- 29.500
KKS-1 24 May 15:49:47 15:52:03 14° 92° (E) 15:54:17 437.445
ITAMSAT 1 24 May 16:07:07 16:11:32 28° 264° (W) 16:15:59 435.822/435.867
HORYU 2 24 May 16:12:41 16:15:59 21° 67° (ENE) 16:19:17 437.375
STARS 24 May 16:34:27 16:37:50 22° 95° (E) 16:41:10 437.465
SWISSCUBE 24 May 16:39:04 16:42:33 20° 294° (WNW) 16:46:02 437.505
ITUPSAT 1 24 May 16:43:11 16:46:44 21° 294° (WNW) 16:50:16 437.325
YUBILEINY 24 May 16:46:12 16:54:38 58° 91° (E) 17:03:05 435.215
Cosmos 2491 24 May 16:46:46 16:55:26 68° 268° (W) 17:04:02 435.465 / 435.565
BEESAT 24 May 17:10:55 17:12:26 11° 299° (WNW) 17:13:56 436.000
MOZHAYETS 4 24 May 17:13:41 17:18:19 90° 121° (ESE) 17:22:57
CUTE-I 24 May 17:17:49 17:20:38 15° 61° (ENE) 17:23:27 437.470
RS-15 24 May 17:19:14 17:29:07 38° 106° (ESE) 17:39:27 29.354- 29.394
AO-85 24 May 17:23:44 17:27:31 26° 249° (WSW) 17:31:02 145.980
KKS-1 24 May 17:24:35 17:28:53 50° 287° (WNW) 17:33:08 437.445
NOAA 18 24 May 17:37:39 17:42:17 29° 66° (ENE) 17:46:55 137.9125
LilacSat-2 24 May 17:38:30 17:40:19 13° 66° (ENE) 17:42:08 437.200
AO-7 24 May 17:44:19 17:50:14 21° 267° (W) 17:56:12 29.400- 29.500
HORYU 2 24 May 17:48:18 17:52:19 34° 262° (W) 17:56:21 437.375
Cosmos 2504 24 May 18:07:42 18:14:32 50° 90° (E) 18:21:41 435.465 / 435.565
Cubesat XI-IV 24 May 18:07:43 18:12:40 41° 70° (ENE) 18:17:37 437.490
STARS 24 May 18:10:21 18:14:12 31° 290° (WNW) 18:18:01 437.465
BRITE-PL 24 May 18:15:00 18:20:23 54° 73° (ENE) 18:25:57 437.365/2234.400
NOAA 15 24 May 18:15:19 18:20:35 73° 75° (ENE) 18:25:55 137.62
PCSat 24 May 18:28:47 18:30:44 12° 40° (NE) 18:32:41 145.827
DOVE 4 24 May 18:28:59 18:32:25 18° 65° (ENE) 18:35:46 437.250
CUBESAT XI-V 24 May 18:29:18 18:34:00 63° 101° (E) 18:38:39 437.345
YUBILEINY 24 May 18:44:36 18:51:52 29° 290° (WNW) 18:59:11 435.215
Cosmos 2491 24 May 18:49:10 18:50:27 10° 287° (WNW) 18:51:45 435.465 / 435.565
CUTE-I 24 May 18:54:45 19:00:02 72° 257° (WSW) 19:05:22 437.470
GOMX 1 24 May 18:57:44 19:03:11 67° 75° (ENE) 19:08:35 467.674
HO-68 24 May 19:00:53 19:06:05 22° 59° (ENE) 19:11:17 435.675
LilacSat-2 24 May 19:10:39 19:14:16 40° 262° (W) 19:17:52 437.200
CUTE 1.7 + AOD 2 24 May 19:16:24 19:17:38 11° 64° (ENE) 19:18:53 437.475
O/OREOS (USA 219) 24 May 19:17:20 19:19:12 12° 54° (NE) 19:21:02 437.305
NOAA 18 24 May 19:17:49 19:22:47 35° 262° (W) 19:27:46 137.9125
CINEMA 3 24 May 19:25:18 19:28:33 18° 67° (ENE) 19:31:42 145.822/145.860
RS-15 24 May 19:29:39 19:40:52 62° 308° (NW) 19:52:47 29.354- 29.394
Cubesat XI-IV 24 May 19:48:42 19:52:51 23° 266° (W) 19:57:02 437.490
COMPASS 1 24 May 19:49:53 19:51:59 14° 65° (ENE) 19:54:04 437.405
AUBIESAT-1 24 May 19:52:34 19:56:48 66° 70° (ENE) 20:00:45 437.475
BRITE-PL 24 May 19:55:06 19:59:08 20° 269° (W) 20:03:16 437.365/2234.400
M-CUBED/EXP-1 PRIME 24 May 19:56:01 20:00:23 90° 26° (NNE) 20:04:27 437.505
AAUSAT CUBESAT 2 24 May 19:56:09 19:57:59 13° 65° (ENE) 19:59:50 437.432
NOAA 15 24 May 19:58:38 20:00:53 13° 270° (W) 20:03:08 137.62
STRAND 1 24 May 20:01:12 20:06:05 42° 99° (E) 20:10:57 437.568
Cosmos 2504 24 May 20:02:18 20:08:14 27° 290° (WNW) 20:14:25 435.465 / 435.565
DOVE 4 24 May 20:04:27 20:09:39 57° 260° (W) 20:14:43 437.250
CUBESAT XI-V 24 May 20:08:34 20:10:49 13° 297° (WNW) 20:13:04 437.345
PCSat 24 May 20:09:44 20:15:10 68° 60° (ENE) 20:20:33 145.827
CANX-2 24 May 20:20:48 20:24:59 71° 76° (ENE) 20:29:11 2200.000
SEEDS 24 May 20:30:33 20:34:37 57° 75° (ENE) 20:38:44 437.485
CUBEBUG 2 24 May 20:37:12 20:41:05 30° 71° (ENE) 20:44:53 437.445
GOMX 1 24 May 20:38:29 20:41:38 15° 270° (W) 20:44:47 467.674
Oscar 11 24 May 20:40:28 20:43:16 17° 66° (ENE) 20:46:05 145.826/435.025
HO-68 24 May 20:46:00 20:53:07 71° 256° (WSW) 21:00:17 435.675
GONETS M04 24 May 20:47:45 20:49:05 10° 74° (ENE) 20:50:26
ZACube-1 24 May 20:47:52 20:50:46 18° 67° (ENE) 20:53:37 437.345
CUTE 1.7 + AOD 2 24 May 20:48:47 20:52:55 61° 259° (W) 20:57:07 437.475
O/OREOS (USA 219) 24 May 20:54:38 20:59:05 68° 251° (WSW) 21:03:30 437.305
DELFI C3 24 May 20:55:53 20:56:20 10° 64° (ENE) 20:56:47 145.870
CINEMA 3 24 May 21:00:43 21:05:21 45° 261° (W) 21:09:50 145.822/145.860
BEESAT 3 24 May 21:07:51 21:11:17 27° 51° (NE) 21:14:41 437.485
UWE-3 24 May 21:12:36 21:16:50 52° 74° (ENE) 21:20:59 435.000/436.395/437.385
AIST 1 24 May 21:16:11 21:19:25 20° 88° (E) 21:22:40
COMPASS 1 24 May 21:23:08 21:27:07 47° 261° (W) 21:31:08 437.405
FUNcube-1 24 May 21:26:29 21:30:33 45° 73° (ENE) 21:34:33 145.935
HUMSAT D 24 May 21:27:24 21:28:33 11° 64° (ENE) 21:29:43 437.325/437.525
AAUSAT CUBESAT 2 24 May 21:29:01 21:33:00 50° 260° (W) 21:37:03 437.432
PRISM 24 May 21:38:52 21:43:04 85° 103° (ESE) 21:47:14 437.425
STRAND 1 24 May 21:41:03 21:44:58 23° 295° (WNW) 21:48:53 437.568
ISS 24 May 21:41:05 21:41:55 11° 128° (SE) 21:42:44 145.825
RS-15 24 May 21:47:39 21:56:32 24° 337° (NNW) 22:05:46 29.354- 29.394
PCSat 24 May 21:54:57 21:57:54 15° 257° (WSW) 22:00:51 145.827
BEESAT 2 24 May 22:03:41 22:07:38 62° 56° (ENE) 22:11:34 435.950
SEEDS 24 May 22:09:50 22:10:40 10° 270° (W) 22:11:31 437.485
CUBEBUG 2 24 May 22:14:15 22:17:42 22° 265° (W) 22:21:05 437.445
Oscar 11 24 May 22:15:04 22:19:05 39° 262° (W) 22:23:08 145.826/435.025
ANTELSAT 24 May 22:21:35 22:22:36 11° 91° (E) 22:23:37 437.575/2403.000
ZACube-1 24 May 22:22:50 22:26:47 36° 262° (W) 22:30:41 437.345
DELFI C3 24 May 22:26:46 22:30:39 59° 259° (W) 22:34:36 145.870
CUSAT 1 24 May 22:33:42 22:40:15 28° 66° (ENE) 22:46:02 437.405
GONETS M04 24 May 22:35:25 22:44:07 68° 92° (E) 22:52:47
BEESAT 3 24 May 22:45:40 22:48:52 24° 248° (WSW) 22:52:01 437.485
UWE-3 24 May 22:51:43 22:53:33 12° 268° (W) 22:55:22 435.000/436.395/437.385
Cosmos 2499 24 May 22:52:10 22:58:55 47° 89° (E) 23:06:06 435.465 / 435.565
AIST 1 24 May 22:52:55 22:56:47 30° 283° (WNW) 23:00:42
AISAT 24 May 22:59:31 23:02:34 18° 66° (ENE) 23:05:38 437.250
HUMSAT D 24 May 22:59:40 23:03:41 57° 260° (W) 23:07:43 437.325/437.525
FUNcube-1 24 May 23:04:50 23:07:00 14° 268° (W) 23:09:09 145.935
UNISAT 6 24 May 23:14:08 23:18:16 45° 99° (E) 23:22:25 437.425
ISS 24 May 23:14:40 23:17:54 71° 321° (NW) 23:21:11 145.825
TIGRISAT 24 May 23:22:47 23:26:59 54° 100° (E) 23:31:13 435.000
ESTCUBE 1 24 May 23:22:50 23:27:06 44° 72° (ENE) 23:31:24 437.505/2401.250
UKube-1 24 May 23:25:07 23:28:27 22° 67° (ENE) 23:31:47 .
PHONESAT 2.4 24 May 23:27:28 23:30:06 25° 152° (SSE) 23:32:45 2401.200-2431.200
DANDE 24 May 23:38:18 23:46:20 45° 73° (ENE) 23:53:48 436.750
POPSAT HIP 1 24 May 23:40:01 23:42:20 14° 92° (E) 23:44:38 437.405
QB50P1 24 May 23:40:39 23:43:04 15° 93° (E) 23:45:30 145.935-145.965
QB50P2 24 May 23:41:34 23:44:14 16° 93° (E) 23:46:53 145.880/145.840
POLYITAN 1 24 May 23:43:57 23:46:40 17° 93° (E) 23:49:22 437.675
BEESAT 2 24 May 23:44:41 23:44:56 10° 253° (WSW) 23:45:11 435.950
AIST 2 24 May 23:45:53 23:49:55 48° 55° (NE) 23:53:55 435.215
50 SAT 24 May 23:54:42 23:58:18 79° 77° (ENE) 00:01:58 437.505
ANTELSAT 24 May 23:55:26 23:59:39 59° 285° (WNW) 00:03:56 437.575/2403.000
VELOX 1 24 May 23:58:32 00:02:59 76° 76° (ENE) 00:07:28 145.980
NANOSAT C BR1 25 May 00:00:10 00:03:35 24° 96° (E) 00:06:59 145.865
CUBEBUG 1 25 May 00:00:16 00:04:41 80° 76° (ENE) 00:09:09 437.445
DX 1 25 May 00:04:29 00:08:50 75° 76° (ENE) 00:13:15 434.975-435.025
RS-15 25 May 00:06:53 00:15:19 21° 14° (NNE) 00:23:53 29.354- 29.394
CUSAT 1 25 May 00:15:12 00:22:55 59° 267° (W) 00:29:26 437.405
SO-50 25 May 00:31:16 00:34:23 17° 109° (ESE) 00:37:32 436.795
AISAT 25 May 00:34:31 00:38:43 40° 261° (W) 00:42:58 437.250
GONETS M04 25 May 00:34:40 00:41:36 25° 292° (WNW) 00:48:34
DUCHIFAT 1 25 May 00:39:46 00:43:56 68° 101° (E) 00:48:04 145.980
SPROUT 25 May 00:42:11 00:46:30 88° 80° (E) 00:50:49 437.525
Cosmos 2499 25 May 00:46:10 00:52:17 29° 290° (WNW) 00:58:45 435.465 / 435.565
JAS-2 25 May 00:48:02 00:53:15 20° 88° (E) 00:58:06 435.910
UNISAT 6 25 May 00:52:09 00:54:37 15° 294° (WNW) 00:57:05 437.425
ISS 25 May 00:52:55 00:54:50 15° 341° (NNW) 00:56:47 145.825
UKube-1 25 May 01:00:28 01:04:18 31° 263° (W) 01:08:10 .
TIGRISAT 25 May 01:01:17 01:03:13 13° 296° (WNW) 01:05:10 435.000
ESTCUBE 1 25 May 01:01:19 01:04:07 16° 268° (W) 01:06:55 437.505/2401.250
PHONESAT 2.4 25 May 01:03:31 01:06:39 86° 347° (NNW) 01:09:48 2401.200-2431.200
BUGSAT 1 25 May 01:11:30 01:15:33 72° 101° (ESE) 01:19:33 437.445
POPSAT HIP 1 25 May 01:14:21 01:18:19 42° 287° (WNW) 01:22:16 437.405
QB50P1 25 May 01:15:05 01:19:02 40° 288° (WNW) 01:22:58 145.935-145.965
QB50P2 25 May 01:16:17 01:20:10 37° 288° (WNW) 01:24:03 145.880/145.840
TISAT 1 25 May 01:18:20 01:22:30 61° 75° (ENE) 01:26:42 437.305
POLYITAN 1 25 May 01:18:43 01:22:36 36° 288° (WNW) 01:26:26 437.675
AIST 2 25 May 01:25:44 01:27:58 14° 251° (WSW) 01:30:14 435.215
